RH
14 15 18 24 27 34 32 27 18 39 62 66 64 75 84 87 81 82 92 82 76 99 96 79 74 74 74 75 84 86 76 72 72 71 66 63 62 53 49 57 65 67 67 38 27 27 26 23 29
15 25 29 28 27 29 26 25 41 70 61 62 61 73 76 91 85 95 96 94 85 96 96 85 72 76 76 79 80 84 89 83 77 71 61 61 52 51 55 48 48 46 32 29 27 24 23 23 31
18 22 26 26 25 23 24 60 65 60 56 63 63 70 78 91 85 91 87 95 94 98 93 84 73 74 73 81 81 88 80 72 69 74 58 50 47 48 37 30 25 24 30 29 26 24 23 26 38
18 17 20 18 19 15 26 47 67 65 55 52 63 81 79 91 89 93 76 75 80 99 99 92 81 77 82 84 82 76 73 64 70 62 47 45 43 31 26 26 27 32 32 29 26 27 26 29 35
16 22 22 18 14 47 69 64 57 59 61 58 52 76 89 98 100 98 82 89 96 97 78 81 68 76 82 78 76 73 63 56 57 46 41 42 32 27 34 33 33 34 31 28 27 29 28 27 30
26 20 22 21 18 66 63 71 63 68 50 52 62 76 89 99 98 99 97 95 88 85 83 84 78 78 80 76 74 64 54 50 43 39 38 31 28 35 33 33 33 32 32 28 30 30 33 42 43
25 24 22 18 17 69 65 64 77 66 57 56 57 87 86 97 100 100 100 100 92 87 90 91 88 77 76 74 64 54 48 40 37 35 31 36 35 35 33 32 33 35 34 32 31 33 37 48 47
21 18 17 16 21 60 67 65 69 60 66 53 74 89 87 88 100 100 100 100 95 97 90 86 76 73 84 71 59 50 40 36 32 34 40 38 37 38 39 40 41 43 41 39 39 41 50 54 52
14 22 24 18 35 62 60 67 60 65 59 62 70 71 75 100 100 100 100 99 93 98 86 71 82 86 79 66 58 44 35 30 38 45 49 54 50 49 48 50 51 52 49 51 53 54 60 59 55
17 22 18 28 53 62 59 61 63 66 62 67 68 85 93 96 94 92 95 99 99 93 77 84 85 85 73 63 48 40 32 45 46 56 61 69 68 69 61 64 64 66 64 65 64 63 66 63 60
15 18 31 44 50 54 58 66 62 61 57 61 64 91 92 87 84 84 85 91 90 74 85 81 73 80 65 45 42 33 42 55 62 66 72 77 77 79 76 80 77 73 75 74 70 67 62 58 56
14 21 37 50 53 57 60 64 65 62 51 47 53 86 87 87 87 82 82 78 75 87 85 76 69 67 45 39 39 48 55 59 69 80 82 80 79 80 75 70 69 66 66 63 62 62 59 57 55
19 41 41 44 43 46 47 42 49 58 73 60 69 78 81 80 88 81 75 83 64 77 78 74 69 54 52 44 61 66 70 74 83 80 77 76 74 74 71 72 70 68 65 62 59 57 55 53 51
27 36 40 36 41 37 36 41 48 59 65 64 69 85 77 77 82 95 98 93 87 84 82 75 69 60 57 57 60 64 76 82 79 73 70 69 68 72 77 77 73 64 57 53 49 49 50 50 47
27 40 34 38 36 30 36 35 45 54 61 71 66 80 74 73 83 81 88 88 73 70 58 56 61 61 63 67 74 80 79 75 72 66 66 68 73 77 77 63 49 48 49 51 50 49 49 38 35
22 30 36 33 28 29 33 43 35 60 63 75 79 77 70 73 73 77 79 78 65 62 57 56 62 68 69 75 74 73 70 65 58 59 61 66 69 70 50 40 46 52 52 52 54 54 44 41 41
26 31 34 38 30 27 31 35 38 66 61 65 83 80 66 65 70 67 75 62 60 51 52 66 73 73 72 72 70 66 61 57 54 53 55 55 43 46 49 50 51 53 54 55 52 48 48 46 44
28 29 28 34 34 36 36 36 40 51 48 53 70 84 68 70 66 64 68 55 58 52 48 64 74 74 72 71 70 64 64 61 58 48 44 52 55 56 58 57 55 54 52 50 47 48 46 47 47
27 28 32 28 27 37 37 31 37 42 50 50 62 73 75 70 57 64 63 56 62 63 65 68 75 74 73 74 71 73 70 64 52 49 56 58 58 59 59 59 57 55 52 45 45 46 49 49 50
35 37 34 24 23 36 29 31 37 46 42 43 44 43 42 49 44 44 50 62 68 73 71 75 76 74 72 68 64 65 73 70 52 60 60 59 57 54 55 55 52 52 45 44 46 47 48 50 51
37 40 29 28 23 25 24 30 31 34 39 42 38 41 44 48 55 57 62 90 90 91 81 82 77 74 72 68 66 70 73 69 63 62 60 60 57 57 56 51 48 44 45 46 49 50 50 53 55
43 30 26 24 26 25 24 41 36 32 45 46 48 51 55 55 55 76 89 99 98 97 89 86 76 75 73 68 72 72 70 62 60 59 58 59 58 56 52 46 44 44 46 49 52 55 55 55 58
38 27 26 27 37 35 34 36 32 32 38 40 44 51 54 54 57 87 96 98 100 95 86 81 80 78 72 71 82 76 61 53 57 59 59 60 60 58 56 51 48 48 51 48 48 48 52 57 58
25 27 44 49 47 49 37 38 37 35 28 32 40 44 54 56 69 82 88 96 96 88 83 82 84 82 74 81 82 67 53 58 57 61 62 63 51 43 52 47 47 47 47 48 47 46 44 45 50
29 42 58 57 66 56 38 44 37 31 31 31 38 48 54 63 83 87 92 94 99 93 86 86 86 81 78 77 71 60 54 56 59 56 47 40 45 46 47 55 49 43 41 39 38 38 40 44 46
40 38 59 49 62 48 40 47 36 33 32 34 42 58 65 74 78 83 85 87 87 83 81 80 78 57 56 54 55 55 49 47 45 44 46 46 46 53 67 45 38 37 37 38 40 44 46 48 55
36 47 52 56 51 53 43 35 36 31 34 36 49 62 71 72 80 79 76 73 71 69 71 72 56 58 54 53 50 46 44 43 45 50 50 60 66 51 41 40 39 37 38 41 43 47 51 56 64
29 38 52 63 40 40 39 38 49 37 40 50 52 65 68 63 68 68 68 64 58 50 51 51 51 53 54 53 52 48 45 45 47 51 53 49 44 39 38 37 37 40 43 44 48 52 58 60 59
34 34 36 42 54 54 63 45 35 40 42 50 54 58 62 58 59 62 61 59 53 49 49 49 51 55 54 52 50 47 44 50 59 54 48 41 37 36 36 37 40 43 46 48 52 55 56 53 50
32 34 39 61 37 56 63 47 26 37 38 47 48 53 58 50 51 54 58 60 60 56 54 56 57 58 53 50 46 47 57 59 57 40 37 35 36 37 38 40 42 45 48 52 58 57 58 56 62
Wind_Speed
4 2 2 2 4 5 4 7 4 6 2 4 3 8 8 5 1 4 14 16 34 30 30 33 32 28 26 24 22 21 21 23 23 23 21 20 19 18 18 19 19 19 18 19 20 20 20 20 23
2 3 2 2 4 3 6 5 3 4 3 8 8 6 4 4 3 10 13 29 34 32 31 33 36 28 26 25 24 21 20 22 21 21 20 19 19 19 20 19 19 19 19 19 21 21 21 20 23
2 3 3 4 4 5 4 4 3 2 4 3 5 6 4 3 7 6 16 26 32 30 32 33 36 34 29 26 24 21 21 21 20 19 20 19 20 20 19 19 18 18 19 20 21 22 22 22 24
0 4 4 3 5 6 5 5 0 3 2 1 5 7 4 4 2 10 31 31 30 29 30 32 34 32 30 27 25 21 20 20 19 18 20 19 20 20 19 18 18 18 19 20 21 22 23 23 23
1 3 0 4 3 1 5 5 3 2 1 6 2 2 4 5 22 28 31 26 27 28 28 29 32 29 27 25 23 20 19 18 18 19 19 19 19 20 19 18 19 18 18 18 19 19 21 21 21
3 3 2 1 2 0 2 5 1 4 4 3 6 4 2 11 21 26 25 26 26 28 30 22 23 25 24 22 21 19 18 18 17 19 19 19 20 20 19 18 17 17 15 16 15 17 16 18 18
5 3 4 4 3 4 3 3 1 0 5 7 4 4 1 8 20 26 27 29 31 30 31 27 25 23 21 20 19 18 17 17 17 18 19 19 20 20 18 16 14 14 13 13 13 14 14 14 14
5 4 2 4 2 5 4 2 2 5 3 4 3 4 4 4 24 29 31 28 29 26 34 33 24 18 23 21 18 19 18 17 17 19 19 20 19 18 15 14 12 12 11 12 12 11 13 12 9
4 3 4 5 6 4 5 6 3 7 4 5 3 3 14 21 28 27 27 24 23 22 20 28 26 20 21 21 19 19 19 19 19 20 18 17 17 15 13 12 10 10 11 11 10 10 11 10 11
4 3 5 4 5 4 4 3 5 2 2 4 4 13 31 27 25 23 19 19 18 21 21 20 24 27 23 22 19 19 19 19 19 18 16 13 12 12 10 9 6 6 6 5 6 5 9 9 10
3 4 7 1 3 7 5 4 3 5 1 6 11 17 18 28 20 20 20 22 22 29 21 23 25 25 24 22 21 20 20 20 17 13 11 9 6 8 6 5 6 5 5 6 9 11 12 12 11
4 7 8 9 7 6 4 7 3 3 6 4 5 14 19 14 19 20 22 26 30 25 23 20 21 23 21 23 23 23 20 18 12 10 12 13 13 11 12 12 12 14 14 13 10 9 8 7 8
6 5 4 8 10 6 5 4 6 2 2 15 13 18 14 14 19 22 15 19 31 24 20 24 24 23 23 26 23 21 17 13 16 15 13 11 12 12 11 12 13 12 10 8 7 5 6 7 9
0 5 8 3 6 5 2 4 9 6 4 14 8 18 15 16 26 25 22 23 24 25 21 27 27 24 23 23 20 17 19 20 17 13 11 10 10 11 12 11 10 10 7 6 6 8 9 10 10
3 6 5 5 7 1 4 5 4 7 5 12 13 17 21 24 31 30 28 21 23 30 30 29 28 26 25 21 25 25 24 19 15 13 12 11 10 11 11 13 12 10 7 6 7 8 8 10 9
3 4 4 3 1 3 8 2 4 11 11 8 12 13 17 19 28 30 32 27 34 32 32 27 24 27 27 29 27 23 19 17 16 15 14 13 13 13 13 12 10 7 6 6 7 7 8 8 9
5 1 6 1 6 2 5 3 4 14 8 9 14 14 16 13 12 20 31 30 36 34 32 26 27 30 30 28 24 20 18 16 15 15 15 16 15 15 11 10 9 6 4 3 5 6 5 7 7
3 2 3 5 5 4 3 6 6 12 12 14 16 16 16 14 16 23 29 27 34 32 34 31 30 30 29 26 22 19 16 15 13 14 17 16 13 12 11 11 9 6 4 2 2 3 5 5 7
6 11 10 10 8 4 8 6 10 8 9 14 16 17 17 16 22 23 30 30 28 31 36 36 35 34 32 28 24 18 14 15 16 17 16 15 13 13 10 10 9 6 2 3 3 4 5 6 9
5 8 17 16 6 10 5 7 6 7 13 16 17 15 17 12 13 23 28 26 32 37 39 38 38 37 33 28 24 17 15 15 16 18 16 15 12 10 7 5 2 2 1 2 3 7 7 7 8
10 8 6 7 3 6 5 3 2 3 2 3 6 11 13 17 17 15 21 23 27 31 38 39 39 35 30 24 18 12 16 18 20 18 19 15 10 8 5 3 4 1 1 4 5 7 7 6 7
7 7 5 2 3 5 2 4 4 7 10 4 6 7 11 12 11 13 20 23 28 29 35 35 32 29 27 23 20 19 21 25 24 24 20 16 10 7 5 3 2 1 1 2 4 6 7 9 8
10 3 4 2 4 4 2 4 6 5 9 14 14 13 13 16 15 15 21 28 28 34 35 29 27 26 25 24 22 24 26 25 26 24 18 15 13 10 7 5 3 2 2 3 6 8 9 10 11
8 3 7 7 3 3 2 5 5 5 12 9 7 12 16 15 10 12 17 23 28 33 31 24 25 26 25 25 22 29 28 26 26 22 18 13 9 8 4 3 2 1 3 6 7 9 11 12 13
4 6 3 4 4 4 6 3 8 6 9 9 9 10 12 13 13 13 13 19 21 29 28 27 24 21 22 23 27 26 23 23 26 22 17 16 10 8 8 2 4 2 3 5 8 11 13 12 14
4 4 5 3 3 5 3 5 5 7 8 3 7 10 11 13 13 14 16 20 24 27 30 26 21 23 24 25 24 25 23 21 17 14 9 7 8 4 7 4 1 5 8 11 13 12 13 15 14
2 2 7 4 1 1 3 5 7 4 3 0 8 8 9 11 13 13 15 22 27 26 26 27 31 27 25 24 24 22 19 17 16 11 8 2 9 1 3 4 8 12 12 15 16 15 15 12 10
5 6 3 3 2 3 4 4 5 4 3 3 7 9 8 8 10 12 18 23 28 31 31 31 28 26 24 23 23 22 18 14 11 6 1 2 6 5 6 8 10 11 12 16 15 15 12 12 14
3 2 1 4 4 4 1 5 5 8 7 9 9 12 15 14 14 15 19 26 33 34 33 31 30 28 27 25 22 18 12 10 3 2 2 5 6 7 7 9 10 12 13 15 15 14 14 16 17
4 5 6 5 4 1 4 5 4 10 10 10 11 11 12 16 15 16 23 26 25 29 30 31 33 35 32 25 19 13 11 7 5 5 1 6 5 5 8 9 12 13 15 15 14 12 14 16 13
Wind_Direction
247 227 275 75 58 66 272 258 249 307 90 274 186 119 99 81 49 166 142 174 152 150 153 149 141 141 141 139 134 130 127 117 111 106 102 102 101 98 95 95 95 90 85 80 75 70 66 63 62
205 140 90 88 93 66 263 270 260 268 210 188 98 118 54 70 39 121 121 149 151 150 154 151 139 144 141 139 136 133 125 117 113 109 109 107 105 103 102 100 97 93 87 83 79 74 68 65 63
239 171 94 132 147 200 259 305 166 286 269 240 121 55 70 82 105 146 156 152 148 151 156 152 144 146 144 144 135 133 127 120 118 118 114 112 111 108 104 102 97 95 92 88 83 80 75 69 68
170 31 21 115 256 263 291 247 355 290 278 105 116 75 73 34 99 156 154 156 150 152 152 146 141 141 142 140 134 130 129 124 124 120 116 117 114 110 107 103 101 100 97 91 85 82 78 74 68
42 69 351 61 261 29 333 30 4 291 333 12 4 92 58 35 111 140 153 154 151 149 146 145 138 139 138 135 130 136 131 123 128 123 120 119 117 111 108 106 106 101 95 92 90 86 79 75 70
23 101 33 140 266 56 298 360 346 6 22 300 62 97 75 113 106 135 146 152 147 136 133 135 134 132 126 128 136 135 128 130 132 124 122 122 118 114 109 109 107 99 96 91 87 80 74 73 65
139 97 210 212 239 230 257 340 33 220 55 0 20 71 55 97 117 139 140 138 145 145 140 139 133 135 131 143 142 134 132 133 131 126 126 124 122 114 113 109 108 100 95 88 82 73 64 63 64
133 119 276 240 295 245 239 207 168 153 146 156 347 136 177 151 122 126 132 136 143 151 145 138 137 148 152 147 142 136 134 136 133 131 128 126 121 113 108 104 98 92 84 77 73 69 72 65 74
129 67 289 255 180 218 197 210 188 342 300 99 59 231 123 135 120 118 124 127 133 133 135 135 146 160 154 147 145 142 138 139 142 137 132 124 123 113 103 94 89 83 89 78 64 65 65 66 56
108 136 249 249 137 185 214 158 150 192 82 52 95 113 119 125 125 126 134 118 126 133 148 142 159 167 158 155 147 141 142 148 146 140 135 130 133 112 106 90 88 82 74 72 63 53 81 70 57
213 209 188 288 111 117 168 178 194 121 158 200 180 138 140 130 126 123 119 127 141 143 163 161 170 164 162 150 147 144 152 146 145 146 143 141 153 121 113 80 94 105 112 86 95 101 90 80 71
215 239 178 150 150 154 186 144 55 120 236 255 140 151 138 137 133 138 140 145 157 182 183 175 172 169 162 151 148 150 151 154 149 142 143 144 129 131 119 107 112 115 116 116 105 94 80 66 52
168 190 120 146 153 186 128 54 146 214 359 98 112 120 125 113 124 128 153 169 173 192 196 176 168 166 159 154 155 159 163 162 151 147 142 146 136 130 134 133 128 114 111 106 90 69 53 31 25
184 161 104 84 128 189 151 190 124 282 183 104 129 131 125 133 139 160 179 185 195 202 189 180 177 170 162 164 169 176 166 162 167 167 160 156 154 150 140 130 120 110 103 89 64 47 34 21 4
70 88 82 179 192 54 39 6 52 156 232 128 155 143 158 161 161 184 182 188 183 177 165 167 168 172 177 176 163 161 165 170 168 154 145 145 145 145 136 124 112 103 94 67 44 30 12 2 16
143 109 140 291 230 228 92 281 297 154 154 159 141 163 162 173 181 183 181 190 183 177 175 167 168 165 162 162 161 162 162 158 144 140 139 141 140 137 129 121 114 108 92 31 8 6 11 32 24
10 305 95 273 245 147 121 206 231 160 171 159 163 165 168 180 208 178 179 182 182 180 172 167 173 168 165 164 164 160 154 146 142 144 146 144 141 129 114 102 104 107 93 55 5 357 33 35 22
283 352 1 251 235 297 203 228 211 162 161 159 161 166 179 187 202 195 185 185 184 175 175 176 179 176 173 169 164 158 152 152 153 149 145 141 143 134 120 122 122 126 122 62 85 74 24 27 13
334 341 290 257 241 185 225 190 225 152 138 137 161 171 184 192 195 197 196 190 174 178 178 181 182 181 178 171 168 165 161 160 158 156 149 146 138 130 146 140 146 152 160 142 105 15 5 13 9
339 276 278 278 184 182 161 233 205 170 168 167 162 168 170 169 181 189 191 176 178 179 182 185 188 184 183 182 182 184 181 177 166 161 163 159 155 158 168 172 216 237 164 147 6 355 349 340 345
283 258 241 230 292 160 118 39 154 246 333 79 189 166 167 161 155 161 168 163 170 174 183 187 189 186 186 184 180 173 168 164 170 171 165 167 182 176 186 201 200 221 298 342 346 335 322 317 327
278 226 210 253 48 146 154 207 245 184 222 196 215 191 173 171 162 149 155 159 171 179 186 189 185 192 192 188 184 180 173 170 180 177 180 183 187 197 204 226 203 302 328 327 339 345 340 336 320
240 218 327 89 83 65 351 85 263 164 200 215 205 195 186 183 169 161 163 167 174 179 184 183 194 197 194 192 196 193 185 185 186 183 183 183 192 204 203 205 220 176 119 48 349 341 336 321 303
285 85 37 33 34 27 238 131 268 210 220 201 205 194 181 179 161 162 158 159 169 176 180 188 195 199 192 198 207 194 193 192 185 180 177 181 162 151 157 124 102 78 341 335 334 331 328 331 322
40 52 359 7 18 227 319 126 244 239 245 211 189 185 180 166 155 156 155 158 170 175 181 188 189 189 203 201 196 193 182 176 168 166 162 152 139 127 117 18 266 305 333 333 333 329 330 329 320
27 137 149 236 208 237 233 236 250 288 242 133 157 143 156 161 162 166 162 160 169 179 184 184 182 160 162 163 159 154 148 147 150 150 125 110 142 204 289 171 269 334 330 333 334 333 328 327 330
166 165 168 131 223 55 250 303 325 334 321 113 130 137 152 158 160 157 154 163 169 173 179 186 167 161 157 156 152 151 153 156 150 149 158 311 301 267 167 280 308 316 323 327 326 325 328 333 326
160 154 132 70 247 250 289 275 234 258 202 149 162 165 165 160 153 158 164 165 164 158 162 167 172 170 169 170 167 160 159 155 150 154 110 94 193 224 278 293 304 306 316 321 317 314 315 320 318
140 220 321 133 148 179 209 267 227 201 195 187 194 186 176 173 168 170 173 174 172 172 168 172 178 177 171 167 161 154 139 134 124 60 324 181 244 258 275 295 299 308 313 309 297 294 301 314 321
165 234 179 126 248 174 162 266 244 202 200 189 198 189 185 179 178 178 179 177 177 179 183 181 180 175 169 151 140 140 135 125 192 197 215 232 213 255 290 289 292 295 302 293 279 288 305 311 303